Lewistown, MT

9:31 PM MDT on May 24, 2018 (GMT -0600)
Lewistown Municipal

Weather History for KLWT - November, 2014

Change the Weather History Date:

Friday, November 21, 2014

  Actual Average Record
Temperature  
Mean Temperature 40 °F 30 °F  
Max Temperature 50 °F 40 °F 72 °F (1939)
Min Temperature 29 °F 19 °F -20 °F (1946)
Degree Days  
Heating Degree Days 25 35  
Month to date heating degree days 797 654  
Since 1 July heating degree days 1579 1792  
Cooling Degree Days 0 0  
Month to date cooling degree days 0 0  
Year to date cooling degree days 295 210  
Moisture  
Dew Point 25 °F    
Average Humidity 54    
Maximum Humidity 69    
Minimum Humidity 39    
Precipitation  
Precipitation 0.00 in 0.02 in 0.40 in (1921)
Month to date precipitation 0.46 0.51  
Year to date precipitation 17.89 15.99  
Snow  
Snow 0.00 in - - ()
Snow Depth -    
Sea Level Pressure  
Sea Level Pressure 29.75 in    
Wind  
Wind Speed 14 mph (SW)    
Max Wind Speed 22 mph    
Max Gust Speed 25 mph    
Visibility 10 miles    
Events      
T = Trace of Precipitation, MM = Missing Value Source: NWS Daily Summary

Daily Weather History Graph

Daily Weather History Graph

Search for Another Location

Airport or City:

Astronomy

Nov. 21, 2014 Rise Set
Actual Time 7:30 AM MST 4:37 PM MST
Civil Twilight 6:56 AM MST 5:10 PM MST
Nautical Twilight 6:18 AM MST 5:48 PM MST
Astronomical Twilight 5:42 AM MST 6:24 PM MST
Moon 6:23 AM MST (11/21) 4:27 PM MST (11/21)
Length of Visible Light 10h 14m
Length of Day
9h 07m
Waning Crescent, 1% of the Moon is Illuminated
Nov 21
Waning Crescent
Nov 22
New
Nov 29
First Quarter
Dec 6
Full
Dec 14
Last Quarter

Hourly Weather History & Observations

Time (MST) Temp. Windchill Dew Point Humidity Pressure Visibility Wind Dir Wind Speed Gust Speed Precip Events Conditions
12:54 AM 37.9 °F 27.9 °F 25.0 °F 60% 29.81 in 10.0 mi WSW 19.6 mph - N/A   Clear
1:54 AM 37.9 °F 28.5 °F 24.1 °F 57% 29.78 in 10.0 mi SW 17.3 mph - N/A   Clear
2:54 AM 34.0 °F 25.5 °F 24.1 °F 67% 29.79 in 10.0 mi WSW 11.5 mph - N/A   Clear
3:54 AM 35.1 °F 25.5 °F 24.1 °F 64% 29.80 in 10.0 mi WSW 15.0 mph - N/A   Clear
4:54 AM 35.1 °F 26.9 °F 24.1 °F 64% 29.81 in 10.0 mi WSW 11.5 mph - N/A   Clear
5:54 AM 34.0 °F 28.8 °F 24.1 °F 67% 29.81 in 10.0 mi West 5.8 mph - N/A   Clear
6:54 AM 35.1 °F 26.9 °F 24.1 °F 64% 29.82 in 10.0 mi SSW 11.5 mph - N/A   Clear
7:54 AM 33.1 °F 26.1 °F 23.0 °F 66% 29.81 in 10.0 mi SW 8.1 mph - N/A   Clear
8:54 AM 39.9 °F 31.1 °F 25.0 °F 55% 29.81 in 10.0 mi SW 17.3 mph 25.3 mph N/A   Clear
9:54 AM 44.1 °F 36.8 °F 26.1 °F 49% 29.81 in 10.0 mi SW 16.1 mph - N/A   Clear
10:54 AM 46.9 °F - 27.0 °F 46% 29.80 in 10.0 mi WSW 11.5 mph - N/A   Clear
11:54 AM 46.9 °F - 27.0 °F 46% 29.78 in 10.0 mi WSW 17.3 mph - N/A   Clear
12:54 PM 48.9 °F - 28.0 °F 44% 29.76 in 10.0 mi WSW 13.8 mph - N/A   Clear
1:54 PM 48.0 °F - 26.1 °F 42% 29.75 in 10.0 mi West 10.4 mph - N/A   Partly Cloudy
2:54 PM 50.0 °F - 27.0 °F 41% 29.76 in 10.0 mi West 12.7 mph - N/A   Scattered Clouds
3:54 PM 43.0 °F 36.4 °F 27.0 °F 53% 29.78 in 10.0 mi WSW 12.7 mph - N/A   Clear
4:54 PM 39.9 °F 32.5 °F 27.0 °F 60% 29.78 in 10.0 mi SW 12.7 mph - N/A   Mostly Cloudy
5:54 PM 36.0 °F 28.0 °F 26.1 °F 67% 29.79 in 10.0 mi SW 11.5 mph - N/A   Partly Cloudy
6:54 PM 37.9 °F 30.9 °F 26.1 °F 62% 29.74 in 10.0 mi SSW 10.4 mph - N/A   Partly Cloudy
7:54 PM 33.1 °F 24.9 °F 25.0 °F 72% 29.74 in 10.0 mi SSW 10.4 mph - N/A   Clear
8:54 PM 35.1 °F 29.3 °F 24.1 °F 64% 29.66 in 10.0 mi South 6.9 mph - N/A   Clear
9:54 PM 37.9 °F 30.0 °F 24.1 °F 57% 29.62 in 10.0 mi SW 12.7 mph - N/A   Clear
10:54 PM 42.1 °F 34.5 °F 26.1 °F 53% 29.56 in 10.0 mi SSW 15.0 mph - N/A   Clear
11:54 PM 42.1 °F 33.6 °F 26.1 °F 53% 29.52 in 10.0 mi SSW 18.4 mph 25.3 mph N/A   Scattered Clouds